Location: Kershaw
(34.5481°N, 80.5823°W)
Time: 07:32:19
(UTC+00:00)

Explorer 7 - Pass Details

Date: 03 October 2022
Orbit: 481 x 665 km, 50.3° (Epoch: 28 November)

Event Time Altitude Azimuth Distance (km) Brightness Sun altitude
Rises 14:34:32 0° 215° (SW) 2,961 10.6 36.6°
Reaches altitude 10° 14:36:54 10° 210° (SSW) 2,066 9.9 37.0°
Maximum altitude 14:41:33 52° 134° (SE) 823 9.7 37.7°
Drops below altitude 10° 14:46:15 10° 59° (ENE) 2,081 10.1 38.4°
Sets 14:48:38 0° 54° (NE) 2,985 10.7 38.8°
